Preview of NWS' New Version of Forecast
This preview is not operational and should not be used for support decisions.

Regional Weather Roundup (RWR)

Issued by Gray - Portland, ME (GYX)

                            
709 
ASUS41 KGYX 211205
RWRGYX
WEATHER ROUNDUP FOR MAINE AND NEW HAMPSHIRE
NATIONAL WEATHER SERVICE GRAY ME
800 AM EDT MON MAY 21 2018

MEZ002-005-006-010-012-015-018-020-021-024-026-027-029-211300-
MAINE
  
CITY           SKY/WX    TMP DP  RH WIND       PRES   REMARKS
PORTLAND       FAIR      59  49  69 W5        30.14R                  
6HR MIN TEMP:  44; 6HR MAX TEMP:  59;                                

SANFORD        FAIR      60  46  59 NW6       30.15R                  
BAR HARBOR     FAIR      59  42  53 W6        30.08R                  
WISCASSET      FAIR      60  44  55 VRB6      30.13R                  
6HR MIN TEMP:  43; 6HR MAX TEMP:  60;                                

ROCKLAND       FAIR      57  45  64 W10       30.10R                  
FRYEBURG       FAIR      60  39  45 VRB6      30.14R                  
6HR MIN TEMP:  40; 6HR MAX TEMP:  60;                                

LEWISTONAUBURN FAIR      59  41  51 W7        30.13R                  
AUGUSTA        FAIR      58  41  53 NW8       30.11R                  
6HR MIN TEMP:  50; 6HR MAX TEMP:  58;                                

WATERVILLE     FAIR      60  41  49 W9        30.08R                  
BANGOR         FAIR      59  40  49 W7        30.07R                  
6HR MIN TEMP:  46; 6HR MAX TEMP:  59;                                

GREENVILLE       N/A     55  34  45 VRB6      30.04R                  
6HR MIN TEMP:  43; 6HR MAX TEMP:  55;                                

MILLINOCKET    FAIR      57  35  43 VRB3      30.04S                  
6HR MIN TEMP:  41; 6HR MAX TEMP:  57;                                

HOULTON        FAIR      56  36  47 SW8       29.98S                  
6HR MIN TEMP:  32; 6HR MAX TEMP:  56;                                

PRESQUE ISLE   FAIR      54  33  45 W12       29.96F                  
6HR MIN TEMP:  34; 6HR MAX TEMP:  54;                                

FRENCHVILLE    FAIR      53  32  44 W8        29.92S                  
6HR MIN TEMP:  41; 6HR MAX TEMP:  53;                                

CARIBOU        FAIR      54  34  46 W10       29.94F                  
6HR MIN TEMP:  40; 6HR MAX TEMP:  54;                                

$$

NHZ002-005-008-009-011-012-014-211300-
NEW HAMPSHIRE
  
CITY           SKY/WX    TMP DP  RH WIND       PRES   REMARKS
PORTSMOUTH     SUNNY     59  47  64 W5        30.13R                  
ROCHESTER      FAIR      58  46  64 NW7       30.14R                  
6HR MIN TEMP:  45; 6HR MAX TEMP:  58;                                

NASHUA         FAIR      59  45  59 NW7       30.17R                  
MANCHESTER     FAIR      62  44  51 VRB5      30.15R                  
6HR MIN TEMP:  52; 6HR MAX TEMP:  62;                                

CONCORD        FAIR      58  46  64 NW7       30.16R                  
6HR MIN TEMP:  46; 6HR MAX TEMP:  58;                                

LACONIA        FAIR      59  43  55 N5        30.16R                  
BERLIN         FAIR      53  44  71 CALM      30.14R                  
6HR MIN TEMP:  33; 6HR MAX TEMP:  53;                                

WHITEFIELD     FAIR      51  46  83 CALM      30.16R                  
6HR MIN TEMP:  34; 6HR MAX TEMP:  51;                                

JAFFREY        FAIR      58  45  62 VRB3      30.18R                  
6HR MIN TEMP:  44; 6HR MAX TEMP:  58;                                

KEENE          FOG       56  52  86 CALM      30.19S VSB 1/4          
LEBANON        FOG       47  44  90 W3        30.19R VSB 1/4          
6HR MIN TEMP:  42; 6HR MAX TEMP:  47;                                

MT WASHINGTON  SUNNY     34  18  51 N35G48      N/A  WCI  19          
6HR MIN TEMP:  30; 6HR MAX TEMP:  34;                                

$$

VTZ005-007-008-211300-
VERMONT
  
CITY           SKY/WX    TMP DP  RH WIND       PRES   REMARKS
ST JOHNSBURY     N/A     44  44 100 MISG      30.15R                  
MONTPELIER     FAIR      52  45  77 CALM      30.20R                  
BURLINGTON     FAIR      55  46  71 E3        30.17R                  
$$

MAZ007-012-024-CTZ003-RIZ002-NYZ038-NYZ072-211300-
SOUTHERN NEW ENGLAND AND NY
  
CITY           SKY/WX    TMP DP  RH WIND       PRES   REMARKS
BOSTON         FAIR      61  46  57 N9        30.15R                  
WORCESTER      FAIR      58  39  49 N14G21    30.17R                  
NANTUCKET      FAIR      61  52  72 N13       30.12R                  
PROVIDENCE     FAIR      62  47  57 N9        30.16R                  
HARTFORD       FAIR      61  51  70 N7        30.19R                  
ALBANY         FAIR      58  50  75 CALM      30.21R                  
NEW YORK CITY  FAIR      64  52  64 N8        30.19R                  
$$

ANZ081-ANZ082-ANZ150-NHZ014-MEZ023>029-211300-
COASTAL MARINE OBSERVATIONS
  
STATION/POSITION TIME  TEMP    WIND        PRES    WAVE
                       AIR SEA DIR/SP/G            HT/PER
                 (UTC) (F)     (DEG/KT/KT) (MB)    (FT/S)
MOUNT DESERT ROC 1200   50     260/  8/  9 1018.9R
MATINICUS ROCK   1100   53     280/ 13/ 14 1018.4R
ISLE OF SHOALS   1100   54     270/  8/  9 1019.7R
JEFFREYS LEDGE   1136      51                N/A     3/ 8
CASHES LEDGE BUO 1150   55 49              1019.5R   2/ 8
$$

.............KEY..............
   WCI - WIND CHILL
   TC  - TEMPERATURE IN CELSIUS
   VSB - VISIBILITY IN MILES
   HX  - HEAT INDEX
   FAIR- INDICATES FEW OR NO CLOUDS BELOW 12,000 FT, WITH NO 
         SIGNIFICANT WEATHER AND/OR OBSTRUCTIONS TO VISIBILITY.